Regional Weather Roundup
Issued by NWS Huntsville, AL

Home | Current Version | Previous Version | Text Only | Print | Product List | Glossary On
Versions: 1 2 3 4 5 6 7 8 9 10 11 12 13 14 15 16 17 18 19 20 21 22 23 24 25 26 27
000
ASUS44 KHUN 251110
RWRHUN

WEATHER ROUNDUP FOR THE TENNESSEE VALLEY
NATIONAL WEATHER SERVICE HUNTSVILLE AL
600 AM CDT TUE APR 25 2017

ALZ001>004-251200-
NORTHWEST ALABAMA

CITY           SKY/WX    TMP DP  RH WIND       PRES   REMARKS
COURTLAND HCN    N/A     48 N/A N/A CALM        N/A
RUSSELLVILLE     N/A     46 N/A N/A MISG        N/A
SHOALS AIRPORT FOG       51  50  96 CALM      29.79S VSB 1/4
SHOALS TVA RES   N/A     50 N/A N/A MISG        N/A
$$

ALZ005>007-016-251200-
NORTH CENTRAL ALABAMA

CITY           SKY/WX    TMP DP  RH WIND       PRES   REMARKS
CULLMAN AG STN   N/A     48 N/A N/A CALM        N/A
DECATUR AP     FOG       50  50 100 CALM      29.79R VSB 1/2
HUNTSVILLE AP  FOG       54  54 100 CALM      29.79R VSB 1/8
MERIDIANVILLE  FOG       46  46 100 CALM      29.79R VSB 1/2
REDSTONE ARSN  FOG       52  52 100 CALM      29.78R VSB 1/2
VINEMONT AP    FOG       46  46  99 CALM      29.80S VSB 1/2
$$

ALZ008>010-251200-
NORTHEAST ALABAMA

CITY           SKY/WX    TMP DP  RH WIND       PRES   REMARKS
ALBERTVILLE    MOCLDY    48  48 100 SE3       29.78S FOG
FORT PAYNE     CLOUDY    52  50  93 CALM      29.79R FOG
SCOTTSBORO AP  CLOUDY    55  55 100 CALM      29.80S
SCOTTSBORO HCN   N/A     55 N/A N/A MISG        N/A
VALLEY HEAD      N/A     54 N/A N/A MISG        N/A
$$

TNZ076-096-097-251200-
SOUTHEASTERN MIDDLE TENNESSEE

CITY           SKY/WX    TMP DP  RH WIND       PRES   REMARKS
TULLAHOMA      CLOUDY    50  50 100 CALM      29.80R VSB 1/2
WINCHESTER     CLOUDY    54  54 100 CALM      29.80S
$$

...SURROUNDING SITES...

CITY           SKY/WX    TMP DP  RH WIND       PRES   REMARKS
ATLANTA        PTCLDY    57  55  93 W6        29.75R
ANNISTON       CLEAR     50  50 100 SW5       29.79R
BIRMINGHAM     CLOUDY    55  55 100 CALM      29.81S FOG
CHATTANOOGA    PTCLDY    54  53  97 CALM      29.77R
CORINTH        FAIR      46  46 100 CALM      29.77S
DALTON         CLEAR     52  52 100 CALM      29.77R
GADSDEN        PTCLDY    48  48 100 CALM      29.80R FOG
GOLDEN TRNGL   CLEAR     48  43  81 CALM      29.76R
HALEYVILLE     FAIR      46  46 100 CALM      29.81R
JACKSON TN     FOG       49  49 100 CALM      29.76S VSB 1/2
MEMPHIS        PTCLDY    56  53  90 SE5       29.74S
NASHVILLE      CLEAR     51  50  96 CALM      29.79R
OXFORD MS      FAIR      50  50 100 SE3       29.79R
ROME           FOG       52  50  93 CALM      29.77R VSB 1/4
SAVANNAH       FOG       46  46 100 CALM      29.78R VSB 3/4
TUPELO         CLEAR     50  47  89 CALM      29.78S FOG
TUSCALOOSA     CLEAR     50  49  96 CALM      29.80R
$$

...GULF COAST WEATHER...

CITY           SKY/WX    TMP DP  RH WIND       PRES   REMARKS
GULFPORT       PTCLDY    58  55  90 CALM      29.79R
PASCAGOULA     CLEAR     51  49  92 CALM      29.80R
MOBILE         PTCLDY    52  50  93 CALM      29.81R
GULF SHORES    SUNNY     49  49 100 CALM      29.80S
PENSACOLA      PTCLDY    50  49  96 CALM      29.80R
DESTIN         CLEAR     58  56  93 CALM      29.81R
PANAMA CITY    CLEAR     56  53  89 CALM      29.82R
APPALACHICOLA  CLEAR     51  49  92 NW3       29.81R
$$





USA.gov is the U.S. government's official web portal to all federal, state and local government web resources and services.